Location: Mexico
(19.4000°N, 99.1500°W)
Time: 23:40:18
(UTC-06:00)

ISS - Pass Details

Date: 17 May 2019
Orbit: 407 x 410 km, 51.6° (Epoch: 23 May)

Event Time Altitude Azimuth Distance (km) Brightness Sun altitude
Rises 05:13:08 0° 340° (NNW) 2,328 0.1 -11.2°
Reaches altitude 10° 05:15:39 10° 0° (N) 1,466 -0.7 -10.7°
Maximum altitude 05:18:02 18° 47° (NE) 1,067 -0.6 -10.1°
Drops below altitude 10° 05:20:24 10° 93° (E) 1,465 0.1 -9.6°
Sets 05:22:55 0° 113° (ESE) 2,324 0.7 -9.1°
